GW0392 Weather Reports


Display with metric or nautical units.
time (UTC)temp
F
wind
direction
speed
MPH
gust
MPH
rain 1hr
in
rain 24hr
in
rain mn
in
humidity
%
barometer
mb
20260506191609 68 226 0.0 0.0 0.42 0.90 0.90 99 1012.9
20260506191105 68 195 1.0 2.0 0.35 0.88 0.88 99 1013.2
20260506190603 68 186 1.0 1.0 0.05 0.83 0.83 99 1013.3
20260506190059 68 220 0.0 0.0 0.07 0.82 0.82 99 1012.9
20260506185557 67 228 0.0 0.0 0.07 0.82 0.82 99 1012.7
20260506185053 68 235 0.0 0.0 0.05 0.81 0.81 99 1012.5
20260506184551 68 206 1.0 2.0 0.05 0.81 0.81 99 1012.7
20260506184048 68 226 0.0 0.0 0.07 0.80 0.80 99 1012.3
20260506183543 68 227 0.0 1.0 0.12 0.80 0.80 99 1012.5
20260506183040 68 226 1.0 2.0 0.05 0.79 0.79 99 1013.1
20260506182538 68 216 1.0 1.0 0.07 0.78 0.78 98 1013.5
20260506182035 68 231 0.0 0.0 0.35 0.77 0.77 97 1013.1
20260506181533 68 224 0.0 1.0 0.92 0.76 0.76 97 1013.2
20260506181029 69 225 0.0 1.0 0.66 0.70 0.70 96 1013.4
20260506180526 69 228 0.0 0.0 0.12 0.61 0.61 94 1014.1
20260506180022 69 216 1.0 1.0 0.00 0.59 0.59 93 1013.6
20260506175519 69 220 0.0 1.0 0.00 0.59 0.59 93 1013.6
20260506175015 69 213 0.0 3.0 0.00 0.59 0.59 92 1013.7
20260506174514 70 220 2.0 3.0 0.00 0.59 0.59 92 1013.7
20260506174010 70 216 3.0 5.0 0.00 0.59 0.59 92 1013.3
20260506173508 70 235 0.0 0.0 0.00 0.59 0.59 92 1013.4
20260506173004 70 225 0.0 1.0 0.00 0.59 0.59 91 1013.4
20260506172502 70 185 3.0 7.0 0.00 0.59 0.59 91 1013.5
20260506171958 71 175 1.0 2.0 0.00 0.59 0.59 91 1013.1
20260506171455 70 173 2.0 6.0 0.00 0.59 0.59 90 1013.0
20260506170947 70 201 3.0 7.0 0.00 0.59 0.59 90 1013.1
20260506170443 70 227 1.0 5.0 0.00 0.59 0.59 90 1013.3
20260506165936 70 211 2.0 3.0 0.00 0.59 0.59 90 1013.1
20260506165434 71 217 2.0 8.0 0.00 0.59 0.59 90 1013.0
20260506164929 71 173 3.0 5.0 0.00 0.59 0.59 91 1012.8
20260506164426 70 221 1.0 2.0 0.00 0.59 0.59 92 1012.7
20260506163919 70 217 1.0 2.0 0.00 0.59 0.59 93 1012.9
20260506163419 69 183 3.0 6.0 0.00 0.59 0.59 94 1012.8
20260506162914 69 223 0.0 2.0 0.00 0.59 0.59 95 1012.7
20260506162412 68 210 2.0 3.0 0.00 0.59 0.59 96 1012.7
20260506161904 68 223 1.0 5.0 0.00 0.59 0.59 97 1012.9
20260506161402 68 189 3.0 3.0 0.00 0.59 0.59 97 1013.2
20260506160859 68 225 1.0 1.0 0.00 0.59 0.59 98 1013.0
20260506160356 68 220 0.0 0.0 0.00 0.59 0.59 98 1012.9
20260506155854 67 228 0.0 1.0 0.00 0.59 0.59 98 1012.9
20260506155350 67 220 0.0 5.0 0.00 0.59 0.59 99 1012.9
20260506153508 66 195 1.0 2.0 0.00 0.59 0.59 99 1013.3
20260506153005 66 213 0.0 2.0 0.00 0.59 0.59 99 1013.4
20260506152502 66 223 0.0 0.0 0.00 0.59 0.59 99 1013.7
20260506152000 66 231 0.0 0.0 0.00 0.59 0.59 99 1013.9
20260506151458 65 213 1.0 1.0 0.00 0.59 0.59 99 1013.6
20260506150955 65 217 0.0 0.0 0.00 0.59 0.59 99 1013.9
20260506150450 65 225 0.0 1.0 0.00 0.59 0.59 99 1013.7
20260506145948 65 221 2.0 2.0 0.00 0.59 0.59 99 1013.7
20260506145444 65 223 0.0 0.0 0.05 0.59 0.59 99 1013.7
20260506144942 65 165 1.0 3.0 0.12 0.59 0.59 99 1013.5
20260506144438 65 209 2.0 3.0 0.12 0.58 0.58 99 1013.0
20260506143937 65 227 0.0 0.0 0.12 0.57 0.57 99 1013.1
20260506143433 64 225 0.0 1.0 0.12 0.55 0.55 99 1014.1
20260506142932 64 231 0.0 0.0 0.31 0.55 0.55 99 1014.0
20260506142429 64 222 1.0 2.0 0.42 0.53 0.53 99 1014.4
20260506141927 64 212 1.0 3.0 0.31 0.49 0.49 99 1014.9
20260506141425 65 216 0.0 1.0 0.31 0.45 0.45 99 1015.0
20260506140923 65 227 0.0 1.0 0.61 0.43 0.43 99 1014.3
20260506140420 65 228 0.0 2.0 0.50 0.39 0.39 99 1014.3
20260506135916 65 237 1.0 1.0 0.24 0.33 0.33 99 1014.8
20260506135414 65 227 0.0 1.0 0.28 0.31 0.31 99 1014.2
20260506134910 65 231 0.0 0.0 0.26 0.28 0.28 99 1014.1
20260506134406 65 227 0.0 0.0 0.19 0.25 0.25 99 1013.9
20260506133903 65 227 0.0 0.0 0.07 0.23 0.23 99 1014.1
20260506133400 65 228 0.0 0.0 0.00 0.22 0.22 99 1014.0
20260506132856 64 233 0.0 0.0 0.05 0.22 0.22 99 1013.7
20260506132353 64 226 0.0 0.0 0.17 0.22 0.22 99 1013.6
20260506131852 64 224 0.0 0.0 0.12 0.20 0.20 99 1013.3
20260506131348 64 230 0.0 0.0 0.12 0.19 0.19 99 1013.5
20260506130845 64 231 0.0 0.0 0.05 0.18 0.18 99 1013.4
20260506130341 64 226 0.0 0.0 0.12 0.17 0.17 99 1013.5
20260506125839 64 229 0.0 0.0 0.31 0.17 0.17 98 1013.1
20260506125337 64 220 0.0 1.0 0.31 0.15 0.15 98 1012.9
20260506124835 64 226 0.0 1.0 0.42 0.12 0.12 98 1013.2
20260506124332 65 223 0.0 0.0 0.35 0.10 0.10 97 1013.0
20260506123830 65 218 0.0 0.0 0.17 0.05 0.05 97 1013.0
20260506123328 65 224 0.0 0.0 0.12 0.04 0.04 96 1012.4
20260506122825 65 224 0.0 1.0 0.00 0.02 0.02 96 1012.2
20260506122322 65 223 0.0 0.0 0.00 0.02 0.02 96 1012.3
20260506121820 65 216 0.0 0.0 0.00 0.02 0.02 96 1012.4
20260506121317 65 227 0.0 0.0 0.07 0.02 0.02 96 1012.1
20260506120814 65 228 0.0 0.0 0.07 0.02 0.02 95 1012.4
20260506120312 65 236 0.0 0.0 0.00 0.01 0.01 95 1012.1
20260506115809 65 222 0.0 0.0 0.00 0.01 0.01 94 1011.9
20260506115307 66 222 0.0 0.0 0.00 0.01 0.01 93 1011.7
20260506114805 66 220 0.0 0.0 0.00 0.01 0.01 92 1012.1
20260506114302 66 222 1.0 1.0 0.00 0.01 0.01 92 1012.2
20260506113801 66 226 0.0 1.0 0.00 0.01 0.01 91 1011.6
20260506113258 66 216 1.0 2.0 0.00 0.01 0.01 91 1012.0
20260506112754 66 220 0.0 0.0 0.00 0.01 0.01 91 1011.9
20260506112251 66 228 0.0 0.0 0.07 0.01 0.01 90 1011.9
20260506111749 66 221 1.0 2.0 0.07 0.01 0.01 89 1011.9
20260506111247 66 221 1.0 1.0 0.00 0.00 0.00 90 1011.4
20260506110743 66 222 0.0 0.0 0.00 0.00 0.00 90 1011.6
20260506110241 66 223 0.0 1.0 0.00 0.00 0.00 90 1011.8
20260506105737 67 223 0.0 1.0 0.00 0.00 0.00 88 1011.9
20260506105235 67 228 0.0 0.0 0.00 0.00 0.00 86 1011.8
20260506104732 68 223 0.0 0.0 0.00 0.00 0.00 85 1011.3
20260506104230 67 214 0.0 1.0 0.00 0.00 0.00 85 1011.1
20260506103727 67 222 0.0 1.0 0.00 0.00 0.00 86 1011.4
20260506103224 66 204 2.0 2.0 0.00 0.00 0.00 88 1011.2
20260506102722 67 218 1.0 1.0 0.00 0.00 0.00 87 1011.1
20260506102220 67 228 0.0 0.0 0.00 0.00 0.00 85 1011.0
20260506101716 68 282 1.0 2.0 0.00 0.00 0.00 84 1010.7
20260506101212 68 219 1.0 2.0 0.00 0.00 0.00 81 1010.8
20260506100711 69 225 0.0 1.0 0.00 0.00 0.00 80 1010.8
20260506100209 69 163 2.0 2.0 0.00 0.00 0.00 80 1010.9
20260506095707 69 214 2.0 2.0 0.00 0.00 0.00 79 1011.1
20260506095203 69 175 2.0 3.0 0.00 0.00 0.00 79 1011.2
20260506094700 69 207 3.0 6.0 0.00 0.00 0.00 78 1011.1
20260506094158 69 208 3.0 6.0 0.00 0.00 0.00 77 1010.6
20260506093657 69 221 2.0 7.0 0.00 0.00 0.00 77 1010.8
20260506093153 69 198 1.0 2.0 0.00 0.00 0.00 77 1010.8
20260506092651 69 215 0.0 2.0 0.00 0.00 0.00 77 1010.9
20260506092148 69 220 1.0 3.0 0.00 0.00 0.00 77 1010.9
20260506091646 69 225 1.0 5.0 0.00 0.00 0.00 77 1011.1
20260506091143 70 214 0.0 1.0 0.00 0.00 0.00 77 1010.8
20260506090641 70 190 2.0 5.0 0.00 0.00 0.00 76 1010.9
20260506090137 70 212 1.0 3.0 0.00 0.00 0.00 76 1010.8
20260506085634 70 210 0.0 1.0 0.00 0.00 0.00 76 1010.9
20260506085131 70 211 1.0 2.0 0.00 0.00 0.00 76 1010.9
20260506084627 70 229 0.0 2.0 0.00 0.00 0.00 76 1010.8
20260506084124 70 210 1.0 5.0 0.00 0.00 0.00 76 1010.9
20260506083621 69 222 0.0 1.0 0.00 0.00 0.00 76 1010.7
20260506083119 69 220 1.0 2.0 0.00 0.00 0.00 77 1010.9
20260506082615 69 218 1.0 2.0 0.00 0.00 0.00 77 1010.5
20260506082111 69 220 0.0 1.0 0.00 0.00 0.00 76 1010.8
20260506081609 70 216 0.0 1.0 0.00 0.00 0.00 76 1010.8
20260506081107 70 222 0.0 1.0 0.00 0.00 0.00 75 1010.5
20260506080604 70 222 0.0 3.0 0.00 0.00 0.00 75 1010.6
20260506073044 69 224 0.0 1.0 0.00 0.00 0.00 75 1010.4
20260506072541 69 222 0.0 1.0 0.00 0.00 0.00 76 1010.3
20260506072039 69 221 1.0 1.0 0.00 0.00 0.00 75 1010.5
20260506071537 69 219 1.0 3.0 0.00 0.00 0.00 75 1010.4
20260506071034 69 222 0.0 1.0 0.00 0.00 0.00 75 1010.6
20260506070531 69 218 1.0 2.0 0.00 0.00 0.00 75 1010.3
20260506062509 66 222 0.0 0.0 0.00 0.00 0.00 79 1010.8
20260506062005 66 218 0.0 1.0 0.00 0.00 0.00 78 1011.1
20260506061501 66 228 0.0 0.0 0.00 0.00 0.00 78 1011.2
20260506060959 66 227 0.0 0.0 0.00 0.00 0.00 78 1011.3
20260506060457 66 227 0.0 0.0 0.00 0.00 0.00 77 1011.5
20260506050926 66 229 0.0 0.0 0.00 0.00 0.00 79 1011.8
20260506050424 66 230 0.0 0.0 0.00 0.00 0.00 77 1011.6
20260506044914 66 223 0.0 2.0 0.00 0.00 0.00 74 1011.4
20260506044412 66 221 0.0 0.0 0.00 0.00 0.00 76 1011.6
20260506043909 66 221 0.0 0.0 0.00 0.00 0.00 76 1011.8
20260506043406 66 221 0.0 0.0 0.00 0.00 0.00 77 1011.6
20260506042904 66 221 0.0 0.0 0.00 0.00 0.00 77 1011.7
20260506042403 67 221 0.0 1.0 0.00 0.00 0.00 75 1011.6
20260506041901 66 221 0.0 0.0 0.00 0.00 0.00 74 1011.7
20260506041358 67 221 0.0 0.0 0.00 0.00 0.00 75 1011.6
20260506040855 67 221 0.0 0.0 0.00 0.00 0.00 73 1011.7
20260506040352 67 221 0.0 0.0 0.00 0.00 0.00 73 1011.8
20260506035848 67 221 0.0 0.0 0.00 0.00 0.00 73 1011.6
20260506035346 67 221 0.0 0.0 0.00 0.00 0.00 73 1011.6
20260506034843 67 221 0.0 0.0 0.00 0.00 0.00 72 1011.7
20260506034340 67 221 0.0 0.0 0.00 0.00 0.00 72 1011.7
20260506033837 67 221 0.0 0.0 0.00 0.00 0.00 71 1012.0
20260506033334 68 221 0.0 0.0 0.00 0.00 0.00 71 1011.8
20260506032831 68 221 0.0 0.0 0.00 0.00 0.00 71 1012.1
20260506032328 68 221 0.0 0.0 0.00 0.00 0.00 71 1012.1
20260506031825 68 221 0.0 0.0 0.00 0.00 0.00 70 1012.2
20260506031322 68 221 0.0 0.0 0.00 0.00 0.00 70 1012.0
20260506030819 68 221 0.0 0.0 0.00 0.00 0.00 69 1011.9
20260506030317 68 220 0.0 0.0 0.00 0.00 0.00 69 1011.7
20260506025814 68 222 0.0 0.0 0.00 0.00 0.00 68 1011.8
20260506025310 68 222 0.0 0.0 0.00 0.00 0.00 69 1011.9
20260506024808 68 222 0.0 0.0 0.00 0.00 0.00 68 1011.9
20260506024304 68 223 0.0 0.0 0.00 0.00 0.00 69 1012.0
20260506023800 68 227 0.0 0.0 0.00 0.00 0.00 69 1012.0
20260506023258 68 228 0.0 0.0 0.00 0.00 0.00 68 1012.2
20260506022754 68 224 0.0 0.0 0.00 0.00 0.00 69 1012.2
20260506022252 68 224 0.0 0.0 0.00 0.00 0.00 69 1012.0
20260506021750 69 224 0.0 0.0 0.00 0.00 0.00 68 1011.8
20260506021247 69 223 0.0 0.0 0.00 0.00 0.00 67 1011.7
20260506020743 69 234 0.0 0.0 0.00 0.00 0.00 66 1011.7
20260506020241 70 223 0.0 0.0 0.00 0.00 0.00 64 1011.6
20260506015738 70 211 1.0 1.0 0.00 0.00 0.00 64 1012.0
20260506015236 70 219 1.0 1.0 0.00 0.00 0.00 65 1011.7
20260506014732 70 210 1.0 1.0 0.00 0.00 0.00 64 1011.6
20260506014229 70 219 0.0 2.0 0.00 0.00 0.00 64 1011.5
20260506013726 70 220 1.0 1.0 0.00 0.00 0.00 65 1011.4
20260506013223 70 213 1.0 1.0 0.00 0.00 0.00 64 1011.6
20260506012719 69 219 0.0 0.0 0.00 0.00 0.00 64 1011.5
20260506012217 69 223 0.0 2.0 0.00 0.00 0.00 64 1011.3
20260506011714 69 215 1.0 2.0 0.00 0.00 0.00 66 1011.1
20260506011210 69 214 1.0 1.0 0.00 0.00 0.00 67 1011.3
20260506010709 68 220 2.0 2.0 0.00 0.00 0.00 68 1011.3
20260506010206 68 214 1.0 1.0 0.00 0.00 0.00 69 1011.1
20260506005703 68 218 1.0 2.0 0.00 0.00 0.00 70 1011.3
20260506005159 68 213 1.0 1.0 0.00 0.00 0.00 72 1011.1
20260506004655 68 218 0.0 1.0 0.00 0.00 0.00 70 1010.9
20260506004153 68 220 0.0 0.0 0.00 0.00 0.00 71 1011.3
20260506003649 67 219 0.0 1.0 0.00 0.00 0.00 74 1011.1
20260506003145 67 219 0.0 1.0 0.00 0.00 0.00 76 1011.1
20260506002641 67 220 1.0 1.0 0.00 0.00 0.00 77 1011.3
20260506002138 67 220 0.0 0.0 0.00 0.00 0.00 77 1011.2
20260506001633 67 220 0.0 0.0 0.00 0.00 0.00 78 1011.2
20260506001131 68 220 0.0 0.0 0.00 0.00 0.00 78 1011.3
20260506000628 68 220 0.0 0.0 0.00 0.00 0.00 76 1011.4
20260506000125 68 220 0.0 0.0 0.00 0.00 0.00 77 1011.4
20260505235623 68 220 0.0 0.0 0.00 0.00 0.00 76 1011.5
20260505235120 68 220 0.0 0.0 0.00 0.00 0.00 74 1011.7
20260505234617 68 220 0.0 0.0 0.00 0.00 0.00 74 1011.4
20260505234114 69 220 0.0 0.0 0.00 0.00 0.00 76 1011.5
20260505233611 69 220 0.0 0.0 0.00 0.00 0.00 73 1011.4
20260505233108 69 220 0.0 0.0 0.00 0.00 0.00 69 1011.3
20260505232606 70 219 0.0 0.0 0.00 0.00 0.00 68 1011.4
20260505232104 70 219 0.0 0.0 0.00 0.00 0.00 67 1011.4
20260505231600 70 223 0.0 2.0 0.00 0.00 0.00 66 1011.6
20260505231059 70 209 1.0 1.0 0.00 0.00 0.00 68 1011.5
20260505230556 70 218 0.0 1.0 0.00 0.00 0.00 70 1011.7
20260505230052 70 220 0.0 0.0 0.00 0.00 0.00 67 1011.5
20260505225549 70 218 1.0 1.0 0.00 0.00 0.00 66 1011.3
20260505225045 70 220 1.0 1.0 0.00 0.00 0.00 66 1011.4
20260505224542 69 223 0.0 2.0 0.00 0.00 0.00 66 1011.2
20260505224040 69 219 1.0 2.0 0.00 0.00 0.00 73 1011.0
20260505223537 69 215 0.0 1.0 0.00 0.00 0.00 68 1011.7
20260505223033 69 220 0.0 0.0 0.00 0.00 0.00 69 1011.6
20260505222529 69 220 0.0 0.0 0.00 0.00 0.00 72 1011.8
20260505222025 68 220 0.0 0.0 0.00 0.00 0.00 75 1011.6
20260505221523 68 220 0.0 1.0 0.00 0.00 0.00 75 1011.6
20260505221019 68 220 0.0 1.0 0.00 0.00 0.00 74 1011.4
20260505220517 68 221 0.0 1.0 0.00 0.00 0.00 78 1011.6
20260505220014 68 212 1.0 1.0 0.00 0.00 0.00 75 1011.7
20260505215512 68 223 0.0 1.0 0.00 0.00 0.00 69 1011.6
20260505215010 68 205 1.0 2.0 0.00 0.00 0.00 71 1011.5
20260505214508 69 225 0.0 1.0 0.00 0.00 0.00 76 1011.3
20260505214004 69 212 1.0 2.0 0.00 0.00 0.00 71 1011.4
20260505213502 69 233 1.0 3.0 0.00 0.00 0.00 67 1011.4
20260505212958 69 162 2.0 3.0 0.00 0.00 0.00 66 1011.2
20260505212455 69 183 1.0 2.0 0.00 0.00 0.00 69 1011.6
20260505211951 69 223 0.0 1.0 0.00 0.00 0.00 66 1011.8
20260505211449 70 220 0.0 0.0 0.00 0.00 0.00 68 1011.8
20260505210945 72 216 0.0 0.0 0.00 0.00 0.00 61 1011.9
20260505210442 73 223 0.0 0.0 0.00 0.00 0.00 54 1012.0
20260505205939 74 223 0.0 0.0 0.00 0.00 0.00 51 1011.9
20260505205438 75 204 2.0 3.0 0.00 0.00 0.00 45 1011.9
20260505204934 75 202 1.0 1.0 0.00 0.00 0.00 46 1012.0
20260505204432 75 222 0.0 2.0 0.00 0.00 0.00 46 1012.0
20260505203929 75 219 1.0 2.0 0.00 0.00 0.00 43 1011.8
20260505203425 76 218 1.0 2.0 0.00 0.00 0.00 44 1012.0
20260505202921 76 199 1.0 2.0 0.00 0.00 0.00 42 1012.1
20260505202418 76 224 0.0 3.0 0.00 0.00 0.00 42 1012.1
20260505201915 76 146 2.0 5.0 0.00 0.00 0.00 40 1012.2
20260505201412 76 183 3.0 7.0 0.00 0.00 0.00 41 1012.2
20260505200910 77 195 4.0 6.0 0.00 0.00 0.00 40 1012.4
20260505200407 77 207 1.0 3.0 0.00 0.00 0.00 42 1012.1
20260505195902 77 215 2.0 8.0 0.00 0.00 0.00 42 1012.5
20260505195400 78 224 2.0 5.0 0.00 0.00 0.00 42 1012.7
20260505194857 78 210 0.0 2.0 0.00 0.00 0.00 42 1012.5
20260505194354 78 214 1.0 5.0 0.00 0.00 0.00 41 1012.7
20260505193854 78 199 0.0 3.0 0.00 0.00 0.00 40 1012.5
20260505193353 79 182 3.0 9.0 0.00 0.00 0.00 37 1012.7
20260505192850 79 219 1.0 7.0 0.00 0.00 0.00 40 1012.7
20260505192348 78 191 2.0 11.0 0.00 0.00 0.00 38 1012.8
20260505191845 78 212 2.0 10.0 0.00 0.00 0.00 38 1012.8